Weather observations for the past three days for
Willimantic, Windham Airport
Imperial (Metric)
Date Time (edt) Wind (mph) Vis. (mi.) Weather Sky Cond. Temperature (ºF) Relative Humidity Wind Chill (°F) Heat Index (°F) Pressure Precipitation (in)
Air Dwpt 6 hour altimeter (in) sea level (mb) 1 hr 3 hr 6 hr
Max. Min.
16 10:52 Vrbl 6 10.00 Fair CLR 82.9 68 61% 86 29.83 1009.7
16 09:52 W 7 10.00 Fair CLR 81 69.1 67% 84 29.83 1010.0
16 08:52 W 7 10.00 Fair CLR 79 68 69% 81 29.83 1009.9
16 07:52 W 5 10.00 Fair CLR 77 69.1 77 71.1 77% 79 29.84 1010.2
16 06:52 SW 3 10.00 Fair CLR 73.9 70 88% 29.82 1009.6
16 05:52 Calm 4.00 Fog/Mist CLR 71.1 70 96% 29.81 1009.1
16 04:52 Calm 6.00 Fog/Mist CLR 72 71.1 97% 29.79 1008.6
16 03:52 Calm 6.00 Fog/Mist CLR 73 72 96% 29.78 1008.1
16 02:52 Calm 7.00 A Few Clouds FEW095 73.9 73 97% 29.78 1008.0
16 01:52 Calm 8.00 Fair CLR 75.9 73 82 75 91% 76 29.79 1008.4
16 00:52 S 5 6.00 Fog/Mist CLR 75 73.9 96% 73 29.79 1008.4
15 23:52 Calm 6.00 Fog/Mist FEW009 FEW070 75.9 73.9 94% 75 29.81 1009.0
15 22:52 Calm 7.00 Fair CLR 77 75 94% 78 29.8 1008.9
15 21:52 SE 5 9.00 Fair CLR 79 75 88% 83 29.82 1009.4
15 20:52 S 5 10.00 Fair CLR 80.1 75 85% 85 29.81 1009.2
15 19:52 S 7 10.00 Fair CLR 82 75 90 82 79% 89 29.79 1008.7
15 18:52 S 10 10.00 Fair CLR 84 75 74% 92 29.79 1008.5
15 17:52 S 9 10.00 Fair CLR 84 75 74% 92 29.79 1008.5
15 16:52 S 9 G 17 10.00 A Few Clouds FEW035 88 73 61% 96 29.81 1009.2
15 15:52 S 9 10.00 Fair CLR 89.1 73 59% 97 29.82 1009.7
15 14:52 S 13 10.00 Mostly Cloudy FEW037 BKN110 88 73 61% 96 29.84 1010.3
15 13:52 SW 10 10.00 Fair CLR 89.1 72 90 73 57% 96 29.85 1010.6
15 12:52 SW 10 10.00 Fair CLR 89.1 71.1 55% 95 29.87 1011.4
15 11:52 Calm 10.00 Fair CLR 88 72 59% 95 29.89 1011.7
15 10:52 Calm 10.00 Fair CLR 84.9 71.1 63% 90 29.89 1011.9
15 09:52 Vrbl 6 10.00 Fair CLR 82.9 72 70% 88 29.9 1012.3
15 08:52 Vrbl 3 10.00 Fair CLR 78.1 72 82% 80 29.92 1013.0
15 07:52 Calm 10.00 Mostly Cloudy BKN110 73 70 73 66.9 90% 29.92 1013.0
15 06:52 Calm 9.00 Mostly Cloudy BKN120 70 68 93% 29.92 1012.8
15 05:52 Calm 9.00 A Few Clouds FEW100 68 66.9 96% 29.92 1012.8
15 04:52 Calm 10.00 Mostly Cloudy BKN110 68 66.9 96% 29.92 1013.0
15 03:52 Calm 10.00 Fair CLR 68 66 93% 29.91 1012.7
15 02:52 Calm 10.00 Fair CLR 69.1 66.9 93% 29.91 1012.7
15 01:52 N 3 10.00 Fair CLR 69.1 66.9 81 69.1 93% 29.93 1013.2
15 00:52 Calm 10.00 Fair CLR 71.1 66.9 87% 29.94 1013.7
14 23:52 Calm 10.00 Fair CLR 73 66 79% 29.94 1013.7
14 22:52 Calm 10.00 Fair CLR 73.9 66.9 79% 29.95 1014.1
14 21:52 S 5 10.00 Fair CLR 77 66 69% 79 29.95 1014.0
14 20:52 S 3 10.00 A Few Clouds FEW100 79 66.9 67% 81 29.94 1013.7
14 19:52 SW 5 10.00 Fair CLR 81 70 89.1 81 69% 84 29.94 1013.7
14 18:52 SW 7 10.00 Fair CLR 84 69.1 61% 88 29.95 1013.9
14 17:52 SW 8 10.00 Fair CLR 87.1 66 50% 89 29.94 1013.5
14 16:52 SW 6 10.00 Fair CLR 87.1 64.9 48% 89 29.95 1013.8
14 15:52 W 5 10.00 Fair CLR 88 66 48% 90 29.97 1014.6
14 14:52 Calm 10.00 Fair CLR 87.1 63 45% 88 29.97 1014.8
14 13:52 NW 6 10.00 Fair CLR 86 63 87.1 73 46% 87 29.99 1015.2
14 12:52 Vrbl 6 10.00 Fair CLR 84.9 62.1 46% 85 30.02 1016.3
14 11:52 NW 7 10.00 Fair CLR 84 60.1 44% 84 30.03 1016.7
14 10:52 N 6 10.00 Fair CLR 82 64 55% 84 30.05 1017.3
14 09:52 N 5 10.00 Fair CLR 81 64 57% 83 30.05 1017.2
14 08:52 Calm 10.00 Fair CLR 77 69.1 77% 79 30.06 1017.5
14 07:52 Calm 10.00 Fair CLR 73 68 73 68 84% 30.06 1017.7
14 06:52 Calm 3.00 Fog/Mist BKN002 68 68 100% 30.06 1017.6
14 05:52 Calm 0.15 Fog VV002 68 68 100% 30.05 1017.4
14 04:52 Calm 0.25 Fog VV002 69.1 69.1 100% 30.05 1017.3
14 03:52 Calm 0.25 Fog VV002 70 70 100% 30.04 1017.0
14 02:52 Calm 0.25 Fog VV002 70 70 100% 30.04 1017.1
14 01:52 Calm 10.00 Overcast OVC002 70 70 78.1 70 100% 30.05 1017.3
14 00:52 Calm 8.00 A Few Clouds FEW006 71.1 70 96% 30.07 1017.9
13 23:52 Calm 10.00 Fair CLR 72 71.1 97% 30.08 1018.2
13 21:52 SW 3 10.00 A Few Clouds FEW120 73.9 72 94% 30.07 1018.1
13 20:52 S 5 10.00 Fair CLR 75.9 73 91% 76 30.06 1017.7
13 19:52 S 6 10.00 Fair CLR 78.1 73 82 77 85% 81 30.07 1018.1
13 18:52 S 8 10.00 Partly Cloudy SCT025 81 72 74% 85 30.06 1017.7
13 17:52 S 7 10.00 A Few Clouds FEW025 81 71.1 72% 85 30.06 1017.8
13 16:52 S 9 10.00 Partly Cloudy SCT024 81 72 74% 85 30.07 1018.2
13 15:52 SE 3 10.00 Partly Cloudy SCT020 81 72 74% 85 30.09 1018.7
13 14:52 S 7 10.00 Mostly Cloudy BKN016 BKN100 79 72 79% 82 30.11 1019.2
13 13:52 SW 3 10.00 Overcast SCT022 BKN030 OVC095 77 72 77 73 85% 78 30.14 1020.4 0.63
13 12:52 S 7 10.00 Light Rain FEW010 BKN023 OVC110 75.9 72 88% 76 30.15 1020.7
Date Time (edt) Wind (mph) Vis. (mi.) Weather Sky Cond. Air Dwpt Max. Min. Relative Humidity Wind Chill (°F) Heat Index (°F) altimeter (in) sea level (mb) 1 hr 3 hr 6 hr
6 hour
Temperature (ºF) Pressure Precipitation (in)